Location: Podia
(1.5569°N, 32.3469°E)
Time: 22:46:14
(UTC+00:00)

S-56A Canister/Altair - Pass Details

Date: 03 October 2020
Orbit: 633 x 2499 km, 38.9° (Epoch: 29 October)

Event Time Altitude Azimuth Distance (km) Brightness Sun altitude
Rises 19:06:09 0° 311° (NW) 5,093 12.1 -51.6°
Reaches altitude 10° 19:09:59 10° 312° (NW) 3,804 11.3 -52.6°
Enters shadow 19:12:02 17° 312° (NW) 3,107 10.8 -53.1°
